FW0960 Weather Reports


Display with metric or nautical units.
time (UTC)temp
F
wind
direction
speed
MPH
gust
MPH
rain 1hr
in
rain 24hr
in
rain mn
in
humidity
%
barometer
mb
20260901135404 83 159 1.0 5.0 0.00 0.00 0.00 85 1017.4
20260901133901 82 163 1.0 5.0 0.00 0.00 0.00 87 1017.5
20260901133401 81 164 1.0 5.0 0.00 0.00 0.00 87 1017.5
20260901132354 81 165 0.0 5.0 0.00 0.00 0.00 88 1017.4
20260901131854 80 177 1.0 3.0 0.00 0.00 0.00 90 1017.4
20260901131356 80 177 1.0 6.0 0.00 0.00 0.00 90 1017.5
20260901130859 80 177 0.0 6.0 0.00 0.00 0.00 90 1017.3
20260901125857 79 268 0.0 2.0 0.00 0.00 0.00 93 1017.4
20260901124911 78 269 0.0 2.0 0.00 0.00 0.00 94 1017.3
20260901123849 78 269 0.0 3.0 0.00 0.00 0.00 94 1017.5
20260901123348 78 269 0.0 2.0 0.00 0.00 0.00 96 1017.5
20260901122852 77 269 0.0 2.0 0.00 0.00 0.00 96 1017.8
20260901122344 77 269 0.0 3.0 0.00 0.00 0.00 97 1017.9
20260901121343 76 269 0.0 2.0 0.00 0.00 0.00 99 1018.0
20260901120344 76 269 0.0 2.0 0.00 0.00 0.00 100 1017.8
20260901115844 76 269 0.0 2.0 0.00 0.00 0.00 100 1017.8
20260901115340 76 269 0.0 0.0 0.00 0.00 0.00 100 1017.8
20260901114841 75 269 0.0 0.0 0.00 0.00 0.00 100 1017.7
20260901114341 75 269 0.0 0.0 0.00 0.00 0.00 100 1017.8
20260901113843 75 269 0.0 0.0 0.00 0.00 0.00 100 1017.7
20260901113410 75 269 0.0 0.0 0.00 0.00 0.00 100 1017.8
20260901112344 75 269 0.0 0.0 0.00 0.00 0.00 100 1017.6
20260901111336 74 269 0.0 0.0 0.00 0.00 0.00 100 1017.3
20260901105342 74 269 0.0 0.0 0.00 0.00 0.00 99 1017.3
20260901104837 74 269 0.0 0.0 0.00 0.00 0.00 99 1017.2
20260901104341 74 269 0.0 0.0 0.00 0.00 0.00 99 1017.1
20260901103843 74 269 0.0 0.0 0.00 0.00 0.00 99 1017.2
20260901103334 74 269 0.0 0.0 0.00 0.00 0.00 99 1017.1
20260901102836 74 269 0.0 0.0 0.00 0.00 0.00 99 1017.2
20260901102331 74 269 0.0 0.0 0.00 0.00 0.00 99 1017.1
20260901101331 74 269 0.0 0.0 0.00 0.00 0.00 99 1017.2
20260901100339 74 269 0.0 0.0 0.00 0.00 0.00 99 1017.2
20260901095334 74 269 0.0 0.0 0.00 0.00 0.00 99 1017.1
20260901094838 75 269 0.0 0.0 0.00 0.00 0.00 99 1017.1
20260901094330 74 269 0.0 0.0 0.00 0.00 0.00 99 1017.1
20260901093834 74 269 0.0 0.0 0.00 0.00 0.00 99 1017.0
20260901092836 75 269 0.0 0.0 0.00 0.00 0.00 99 1017.1
20260901092330 75 269 0.0 0.0 0.00 0.00 0.00 99 1017.1
20260901091337 75 269 0.0 0.0 0.00 0.00 0.00 99 1017.0
20260901090833 75 269 0.0 0.0 0.00 0.00 0.00 99 1017.0
20260901090335 75 269 0.0 0.0 0.00 0.00 0.00 99 1017.2
20260901085833 75 269 0.0 0.0 0.00 0.00 0.00 99 1017.2
20260901085328 75 269 0.0 0.0 0.00 0.00 0.00 99 1017.2
20260901084838 75 269 0.0 0.0 0.00 0.00 0.00 99 1017.3
20260901084335 75 269 0.0 0.0 0.00 0.00 0.00 99 1017.4
20260901083828 75 269 0.0 0.0 0.00 0.00 0.00 99 1017.3
20260901082820 75 269 0.0 0.0 0.00 0.00 0.00 99 1017.3
20260901082322 75 269 0.0 0.0 0.00 0.00 0.00 99 1017.2
20260901081822 75 269 0.0 0.0 0.00 0.00 0.00 99 1017.2
20260901081320 75 269 0.0 0.0 0.00 0.00 0.00 99 1017.3
20260901080822 75 269 0.0 0.0 0.00 0.00 0.00 99 1017.4
20260901075815 75 269 0.0 0.0 0.00 0.00 0.00 99 1017.4
20260901075314 75 269 0.0 0.0 0.00 0.00 0.00 99 1017.4
20260901074813 75 269 0.0 0.0 0.00 0.00 0.00 99 1017.4
20260901074314 75 269 0.0 0.0 0.00 0.00 0.00 99 1017.4
20260901073311 75 269 0.0 0.0 0.00 0.00 0.00 99 1017.5
20260901072812 74 269 0.0 0.0 0.00 0.00 0.00 99 1017.5
20260901072311 74 269 0.0 0.0 0.00 0.00 0.00 98 1017.6
20260901071804 74 269 0.0 0.0 0.00 0.00 0.00 98 1017.6
20260901070802 75 269 0.0 0.0 0.00 0.00 0.00 98 1017.4
20260901070303 75 269 0.0 0.0 0.00 0.00 0.00 98 1017.4
20260901065805 75 269 0.0 0.0 0.00 0.00 0.00 98 1017.3
20260901064303 75 269 0.0 0.0 0.00 0.00 0.00 98 1017.5
20260901063304 75 269 0.0 0.0 0.00 0.00 0.00 97 1017.5
20260901062805 75 269 0.0 0.0 0.00 0.00 0.00 97 1017.7
20260901061808 75 269 0.0 0.0 0.00 0.00 0.00 97 1017.7
20260901061307 75 269 0.0 0.0 0.00 0.00 0.00 97 1017.7
20260901060803 75 269 0.0 0.0 0.00 0.00 0.00 97 1017.8
20260901060304 75 269 0.0 0.0 0.00 0.00 0.00 97 1018.0
20260901055804 75 269 0.0 0.0 0.00 0.00 0.00 97 1017.9
20260901055310 75 269 0.0 0.0 0.00 0.00 0.00 97 1018.1
20260901054803 75 269 0.0 0.0 0.00 0.00 0.00 97 1018.2
20260901053803 75 269 0.0 0.0 0.00 0.00 0.00 97 1018.3
20260901053304 75 269 0.0 0.0 0.00 0.00 0.00 97 1018.5
20260901052803 75 269 0.0 0.0 0.00 0.00 0.00 97 1018.6
20260901051255 76 269 0.0 0.0 0.00 0.00 0.00 96 1018.6
20260901050756 76 269 0.0 0.0 0.00 0.00 0.00 96 1018.7
20260901050253 76 269 0.0 0.0 0.00 0.00 0.00 97 1018.6
20260901045801 76 269 0.0 0.0 0.00 0.00 0.00 96 1018.7
20260901045252 76 269 0.0 0.0 0.00 0.00 0.00 96 1018.8
20260901044757 76 269 0.0 0.0 0.00 0.00 0.00 96 1018.7
20260901043748 76 269 0.0 0.0 0.00 0.00 0.00 96 1018.5
20260901043246 76 269 0.0 0.0 0.00 0.00 0.00 96 1018.6
20260901042747 76 269 0.0 0.0 0.00 0.00 0.00 96 1018.5
20260901042246 76 269 0.0 0.0 0.00 0.00 0.00 96 1018.5
20260901041746 76 269 0.0 0.0 0.00 0.00 0.00 96 1018.5
20260901041246 76 269 0.0 0.0 0.00 0.00 0.00 96 1018.3
20260901040244 76 269 0.0 0.0 0.00 0.00 0.00 96 1018.3
20260901035744 76 269 0.0 0.0 0.00 0.00 0.00 95 1018.4
20260901034738 76 269 0.0 0.0 0.00 0.00 0.00 95 1018.3
20260901034242 76 269 0.0 0.0 0.00 0.00 0.00 95 1018.3
20260901032235 76 269 0.0 0.0 0.00 0.00 0.00 95 1018.4
20260901031738 76 269 0.0 0.0 0.00 0.00 0.00 95 1018.2
20260901031237 76 269 0.0 0.0 0.00 0.00 0.00 95 1018.2
20260901030739 76 269 0.0 0.0 0.00 0.00 0.00 95 1018.3
20260901030236 76 269 0.0 0.0 0.00 0.00 0.00 95 1018.3
20260901025230 76 269 0.0 0.0 0.00 0.00 0.00 95 1018.4
20260901024732 76 269 0.0 0.0 0.00 0.00 0.00 94 1018.3
20260901024233 76 269 0.0 0.0 0.00 0.00 0.00 94 1018.4
20260901023733 76 269 0.0 0.0 0.00 0.00 0.00 94 1018.4
20260901022733 76 269 0.0 0.0 0.00 0.00 0.00 94 1018.6
20260901022236 76 269 0.0 0.0 0.00 0.00 0.00 94 1018.7
20260901021233 76 269 0.0 0.0 0.00 0.00 0.00 94 1018.7
20260901020733 76 269 0.0 0.0 0.00 0.00 0.00 94 1018.9
20260901020232 76 269 0.0 0.0 0.00 0.00 0.00 94 1018.9
20260901015731 76 269 0.0 0.0 0.00 0.00 0.00 94 1018.9
20260901014732 76 269 0.0 0.0 0.00 0.00 0.00 94 1019.0
20260901014231 76 269 0.0 0.0 0.00 0.00 0.00 94 1018.9
20260901013729 76 269 0.0 0.0 0.00 0.00 0.00 94 1019.0
20260901013230 76 269 0.0 0.0 0.00 0.00 0.00 94 1019.0
20260901012729 76 269 0.0 0.0 0.00 0.00 0.00 95 1019.0
20260901012228 76 269 0.0 0.0 0.00 0.00 0.00 95 1018.9
20260901011220 76 269 0.0 0.0 0.00 0.00 0.00 95 1018.9
20260901010724 76 269 0.0 0.0 0.00 0.00 0.00 95 1018.9
20260901010218 76 269 0.0 0.0 0.00 0.00 0.00 95 1018.8
20260901005216 76 269 0.0 0.0 0.00 0.00 0.00 94 1018.8
20260901004710 76 269 0.0 1.0 0.00 0.00 0.00 94 1018.8
20260901004209 76 269 0.0 1.0 0.00 0.00 0.00 94 1018.8
20260901003709 76 269 0.0 1.0 0.00 0.00 0.00 94 1018.7
20260901003208 76 269 0.0 1.0 0.00 0.00 0.00 94 1018.6
20260901002706 76 269 0.0 0.0 0.00 0.00 0.00 94 1018.5
20260901002204 76 269 0.0 0.0 0.00 0.00 0.00 94 1018.4
20260901001707 76 269 0.0 0.0 0.00 0.00 0.00 94 1018.5
20260901001221 76 269 0.0 0.0 0.00 0.00 0.00 93 1018.6
20260901000205 76 269 0.0 0.0 0.00 0.00 0.00 93 1018.6
20260831235701 76 269 0.0 0.0 0.00 0.00 0.00 93 1018.6
20260831235203 76 269 0.0 1.0 0.00 0.00 0.00 93 1018.6
20260831234708 76 269 0.0 1.0 0.00 0.00 0.00 93 1018.7
20260831234158 76 269 0.0 0.0 0.00 0.00 0.00 93 1018.7
20260831233654 76 269 0.0 0.0 0.00 0.00 0.00 93 1018.7
20260831233152 76 269 0.0 0.0 0.00 0.00 0.00 92 1018.8
20260831232654 76 269 0.0 0.0 0.00 0.00 0.00 92 1018.7
20260831232154 76 269 0.0 0.0 0.00 0.00 0.00 92 1018.9
20260831231646 76 269 0.0 0.0 0.00 0.00 0.00 92 1018.9
20260831231148 77 269 0.0 0.0 0.00 0.00 0.00 92 1019.0
20260831230147 77 269 0.0 0.0 0.00 0.00 0.00 92 1019.0
20260831225146 77 269 0.0 0.0 0.00 0.00 0.00 91 1019.1
20260831224639 77 269 0.0 0.0 0.00 0.00 0.00 91 1019.0
20260831223636 77 269 0.0 0.0 0.00 0.00 0.00 91 1019.0
20260831223133 77 269 0.0 0.0 0.00 0.00 0.00 91 1019.3
20260831222635 77 269 0.0 0.0 0.00 0.00 0.00 91 1019.4
20260831222134 77 269 0.0 0.0 0.00 0.00 0.00 91 1019.2
20260831221632 77 269 0.0 0.0 0.00 0.00 0.00 91 1019.4
20260831220640 77 269 0.0 1.0 0.00 0.00 0.00 90 1019.5
20260831220132 78 269 0.0 1.0 0.00 0.00 0.00 90 1019.5
20260831215126 78 269 0.0 1.0 0.00 0.00 0.00 90 1019.8
20260831214633 78 269 0.0 1.0 0.00 0.00 0.00 90 1019.8
20260831214123 78 269 0.0 1.0 0.00 0.00 0.00 89 1019.9
20260831213623 78 269 0.0 1.0 0.00 0.00 0.00 90 1019.9
20260831213119 78 269 0.0 1.0 0.00 0.00 0.00 90 1019.8
20260831212620 78 269 0.0 1.0 0.00 0.00 0.00 90 1019.6
20260831212121 78 269 0.0 2.0 0.00 0.00 0.00 90 1019.5
20260831211619 78 269 0.0 2.0 0.00 0.00 0.00 90 1019.5
20260831211120 78 271 0.0 1.0 0.00 0.00 0.00 91 1019.4
20260831205108 78 271 0.0 1.0 0.00 0.00 0.00 91 1019.6
20260831204605 78 271 0.0 1.0 0.00 0.00 0.00 90 1019.5
20260831204141 78 271 0.0 1.0 0.00 0.00 0.00 91 1019.2
20260831203606 78 271 0.0 1.0 0.00 0.00 0.00 90 1019.1
20260831203108 78 271 0.0 1.0 0.00 0.00 0.00 90 1019.0
20260831202650 78 271 0.0 1.0 0.00 0.00 0.00 90 1019.0
20260831202105 78 271 0.0 1.0 0.00 0.00 0.00 90 1019.1
20260831201110 78 269 1.0 1.0 0.00 0.00 0.00 90 1019.0
20260831195604 79 256 0.0 2.0 0.00 0.00 0.00 89 1019.2
20260831195113 79 250 0.0 1.0 0.00 0.00 0.00 90 1019.3
20260831194559 79 250 0.0 1.0 0.00 0.00 0.00 90 1019.2
20260831194100 79 250 1.0 2.0 0.00 0.00 0.00 89 1019.2
20260831193558 80 250 0.0 2.0 0.00 0.00 0.00 88 1019.2
20260831193055 80 250 0.0 2.0 0.00 0.00 0.00 90 1019.1
20260831192555 80 250 0.0 2.0 0.00 0.00 0.00 88 1019.1
20260831192056 80 250 1.0 2.0 0.00 0.00 0.00 89 1019.2
20260831191050 80 248 0.0 2.0 0.00 0.00 0.00 90 1019.2
20260831190549 80 248 1.0 2.0 0.00 0.00 0.00 89 1019.3
20260831190050 80 245 0.0 2.0 0.00 0.00 0.00 89 1019.3
20260831185544 80 240 1.0 2.0 0.00 0.00 0.00 89 1019.5
20260831185041 80 243 0.0 2.0 0.00 0.00 0.00 90 1019.4
20260831184539 80 234 0.0 2.0 0.00 0.00 0.00 89 1019.3
20260831184208 80 234 0.0 2.0 0.00 0.00 0.00 89 1019.6
20260831183036 80 229 0.0 2.0 0.00 0.00 0.00 89 1019.4
20260831182538 80 229 0.0 2.0 0.00 0.00 0.00 89 1019.4
20260831182034 80 229 1.0 2.0 0.00 0.00 0.00 89 1019.2
20260831181538 80 230 0.0 2.0 0.00 0.00 0.00 90 1019.3
20260831180538 80 230 0.0 2.0 0.00 0.00 0.00 90 1019.4
20260831175034 80 230 0.0 2.0 0.00 0.00 0.00 90 1019.6
20260831174534 80 229 0.0 1.0 0.00 0.00 0.00 89 1019.6
20260831174033 80 230 0.0 2.0 0.00 0.00 0.00 89 1019.6
20260831173535 80 230 1.0 2.0 0.00 0.00 0.00 89 1019.6
20260831173033 80 229 1.0 2.0 0.00 0.00 0.00 89 1019.6
20260831172531 80 229 0.0 2.0 0.00 0.00 0.00 89 1019.5
20260831172034 81 229 0.0 2.0 0.00 0.00 0.00 90 1019.6
20260831171533 80 229 0.0 0.0 0.00 0.00 0.00 90 1019.6
20260831171032 80 230 0.0 0.0 0.00 0.00 0.00 89 1019.6
20260831170039 80 230 0.0 0.0 0.00 0.00 0.00 90 1019.7
20260831165532 80 229 0.0 1.0 0.00 0.00 0.00 90 1019.7
20260831165033 80 230 0.0 1.0 0.00 0.00 0.00 90 1019.8
20260831164036 80 229 0.0 2.0 0.00 0.00 0.00 90 1019.7
20260831163533 79 175 0.0 0.0 0.00 0.00 0.00 90 1019.8
20260831163036 79 175 0.0 0.0 0.00 0.00 0.00 91 1019.9
20260831162535 79 175 0.0 0.0 0.00 0.00 0.00 90 1020.1
20260831162037 79 175 0.0 0.0 0.00 0.00 0.00 90 1020.1
20260831161038 78 175 0.0 0.0 0.00 0.00 0.00 90 1020.2
20260831160531 78 175 0.0 0.0 0.00 0.00 0.00 91 1020.0
20260831155032 78 175 0.0 0.0 0.00 0.00 0.00 91 1020.1
20260831154034 78 175 0.0 0.0 0.00 0.00 0.00 93 1020.1
20260831153532 78 175 0.0 0.0 0.00 0.00 0.00 94 1020.2
20260831153035 77 175 0.0 0.0 0.00 0.00 0.00 92 1020.3
20260831152532 77 175 0.0 0.0 0.00 0.00 0.00 93 1020.3
20260831152033 77 175 0.0 0.0 0.00 0.00 0.00 94 1020.3
20260831151531 77 175 0.0 0.0 0.00 0.00 0.00 94 1020.2
20260831151032 76 175 0.0 0.0 0.00 0.00 0.00 95 1020.3
20260831150532 76 175 0.0 0.0 0.00 0.00 0.00 94 1020.3
20260831150034 76 175 0.0 0.0 0.00 0.00 0.00 95 1020.2
20260831143033 76 175 0.0 1.0 0.00 0.00 0.00 97 1020.1
20260831142030 75 175 0.0 0.0 0.00 0.00 0.00 98 1020.1
20260831140534 75 175 0.0 1.0 0.00 0.00 0.00 100 1020.3
20260831140030 75 175 0.0 0.0 0.00 0.00 0.00 100 1020.2